Time,TemperatureF,DewpointF,PressureIn,WindDirection,WindDirectionDegrees,WindSpeedMPH,WindSpeedGustMPH,Humidity,HourlyPrecipIn,Conditions,Clouds,dailyrainin,SoftwareType,DateUTC
2013-08-14 00:05:00,55.9,52.0,29.92,SSW,205,0.0,0.0,86,0.00,,,0.00,weatherlink.com 1.10,2013-08-14 07:05:00,
2013-08-14 00:20:00,55.4,52.0,29.92,SSW,205,0.0,0.0,89,0.00,,,0.00,weatherlink.com 1.10,2013-08-14 07:20:00,
2013-08-14 00:35:00,55.1,52.0,29.93,SSW,205,0.0,0.0,88,0.00,,,0.00,weatherlink.com 1.10,2013-08-14 07:35:00,
2013-08-14 00:50:00,55.3,52.0,29.93,SSW,205,0.0,0.0,88,0.00,,,0.00,weatherlink.com 1.10,2013-08-14 07:50:00,
2013-08-14 01:05:00,55.3,52.0,29.93,SSW,205,0.0,0.0,89,0.00,,,0.00,weatherlink.com 1.10,2013-08-14 08:05:00,
2013-08-14 01:20:00,54.6,51.0,29.92,SSW,205,0.0,0.0,88,0.00,,,0.00,weatherlink.com 1.10,2013-08-14 08:20:00,
2013-08-14 01:35:00,54.1,51.0,29.92,SSW,207,0.0,0.0,90,0.00,,,0.00,weatherlink.com 1.10,2013-08-14 08:35:00,
2013-08-14 01:50:00,54.1,51.0,29.92,SSW,205,0.0,0.0,90,0.00,,,0.00,weatherlink.com 1.10,2013-08-14 08:50:00,
2013-08-14 02:05:00,53.8,51.0,29.93,SSW,201,0.0,0.0,91,0.00,,,0.00,weatherlink.com 1.10,2013-08-14 09:05:00,
2013-08-14 02:20:00,53.3,51.0,29.92,SSW,200,0.0,0.0,91,0.00,,,0.00,weatherlink.com 1.10,2013-08-14 09:20:00,
2013-08-14 02:35:00,53.4,51.0,29.92,SSE,161,0.0,0.0,92,0.00,,,0.00,weatherlink.com 1.10,2013-08-14 09:35:00,
2013-08-14 02:50:00,53.2,51.0,29.92,SSE,161,0.0,0.0,91,0.00,,,0.00,weatherlink.com 1.10,2013-08-14 09:50:00,
2013-08-14 03:05:00,52.9,51.0,29.92,SSE,161,0.0,0.0,92,0.00,,,0.00,weatherlink.com 1.10,2013-08-14 10:05:00,
2013-08-14 03:20:00,52.4,51.0,29.92,SSE,162,0.0,0.0,93,0.00,,,0.00,weatherlink.com 1.10,2013-08-14 10:20:00,
2013-08-14 03:36:00,52.1,50.0,29.92,SSE,162,0.0,0.0,93,0.00,,,0.00,weatherlink.com 1.10,2013-08-14 10:36:00,
2013-08-14 03:50:00,52.4,51.0,29.92,SSE,162,0.0,0.0,94,0.00,,,0.00,weatherlink.com 1.10,2013-08-14 10:50:00,
2013-08-14 04:05:00,52.7,51.0,29.92,SSE,162,0.0,0.0,93,0.00,,,0.00,weatherlink.com 1.10,2013-08-14 11:05:00,
2013-08-14 04:20:00,52.5,51.0,29.92,SE,145,0.0,0.0,93,0.00,,,0.00,weatherlink.com 1.10,2013-08-14 11:20:00,
2013-08-14 04:35:00,51.9,50.0,29.93,SE,146,0.0,0.0,92,0.00,,,0.00,weatherlink.com 1.10,2013-08-14 11:35:00,
2013-08-14 04:50:00,51.6,50.0,29.93,SE,146,0.0,0.0,93,0.00,,,0.00,weatherlink.com 1.10,2013-08-14 11:50:00,
2013-08-14 05:05:00,51.9,50.0,29.92,ESE,104,0.0,0.0,94,0.00,,,0.00,weatherlink.com 1.10,2013-08-14 12:05:00,
2013-08-14 05:20:00,51.5,50.0,29.93,SE,124,0.0,0.0,93,0.00,,,0.00,weatherlink.com 1.10,2013-08-14 12:20:00,
2013-08-14 05:35:00,51.2,50.0,29.93,SE,124,0.0,0.0,94,0.00,,,0.00,weatherlink.com 1.10,2013-08-14 12:35:00,
2013-08-14 05:50:00,51.2,50.0,29.93,SE,124,0.0,0.0,94,0.00,,,0.00,weatherlink.com 1.10,2013-08-14 12:50:00,
2013-08-14 06:05:00,51.3,50.0,29.94,ESE,123,0.0,0.0,94,0.00,,,0.00,weatherlink.com 1.10,2013-08-14 13:05:00,
2013-08-14 06:20:00,50.9,49.0,29.94,ESE,122,0.0,0.0,94,0.00,,,0.00,weatherlink.com 1.10,2013-08-14 13:20:00,
2013-08-14 06:35:00,50.5,49.0,29.94,SE,124,0.0,0.0,94,0.00,,,0.00,weatherlink.com 1.10,2013-08-14 13:35:00,
2013-08-14 06:50:00,50.4,49.0,29.95,SE,125,0.0,0.0,95,0.00,,,0.00,weatherlink.com 1.10,2013-08-14 13:50:00,
2013-08-14 07:05:00,51.0,50.0,29.95,SE,125,0.0,0.0,95,0.00,,,0.00,weatherlink.com 1.10,2013-08-14 14:05:00,
2013-08-14 07:20:00,54.4,53.0,29.95,SE,125,0.0,0.0,94,0.00,,,0.00,weatherlink.com 1.10,2013-08-14 14:20:00,
2013-08-14 07:35:00,55.1,52.0,29.95,SE,125,0.0,0.0,90,0.00,,,0.00,weatherlink.com 1.10,2013-08-14 14:35:00,
2013-08-14 07:50:00,56.7,53.0,29.95,South,191,0.0,0.0,88,0.00,,,0.00,weatherlink.com 1.10,2013-08-14 14:50:00,
2013-08-14 08:06:00,57.2,53.0,29.96,SW,226,0.0,0.0,86,0.00,,,0.00,weatherlink.com 1.10,2013-08-14 15:06:00,
2013-08-14 08:21:00,58.5,54.0,29.95,SW,219,0.0,0.0,84,0.00,,,0.00,weatherlink.com 1.10,2013-08-14 15:21:00,
2013-08-14 08:36:00,59.9,54.0,29.96,SW,217,0.0,0.0,81,0.00,,,0.00,weatherlink.com 1.10,2013-08-14 15:36:00,
2013-08-14 08:51:00,60.5,55.0,29.96,SW,226,4.0,5.0,81,0.00,,,0.00,weatherlink.com 1.10,2013-08-14 15:51:00,
2013-08-14 09:06:00,61.2,55.0,29.96,SSW,205,2.0,5.0,81,0.00,,,0.00,weatherlink.com 1.10,2013-08-14 16:06:00,
2013-08-14 09:36:00,64.9,56.0,29.95,South,170,0.0,4.0,73,0.00,,,0.00,weatherlink.com 1.10,2013-08-14 16:36:00,
2013-08-14 09:51:00,66.9,56.0,29.95,West,277,2.0,4.0,69,0.00,,,0.00,weatherlink.com 1.10,2013-08-14 16:51:00,
2013-08-14 10:06:00,69.1,57.0,29.95,West,273,1.0,4.0,65,0.00,,,0.00,weatherlink.com 1.10,2013-08-14 17:06:00,
2013-08-14 10:21:00,70.4,57.0,29.95,SW,214,1.0,3.0,62,0.00,,,0.00,weatherlink.com 1.10,2013-08-14 17:21:00,
2013-08-14 10:36:00,71.8,56.0,29.95,SW,231,0.0,4.0,58,0.00,,,0.00,weatherlink.com 1.10,2013-08-14 17:36:00,
2013-08-14 10:51:00,73.9,56.0,29.95,West,274,1.0,4.0,53,0.00,,,0.00,weatherlink.com 1.10,2013-08-14 17:51:00,
2013-08-14 11:06:00,75.8,56.0,29.95,WNW,284,1.0,4.0,50,0.00,,,0.00,weatherlink.com 1.10,2013-08-14 18:06:00,
2013-08-14 11:21:00,77.2,54.0,29.94,WNW,297,0.0,4.0,45,0.00,,,0.00,weatherlink.com 1.10,2013-08-14 18:21:00,
2013-08-14 11:36:00,79.3,54.0,29.94,SW,232,1.0,4.0,41,0.00,,,0.00,weatherlink.com 1.10,2013-08-14 18:36:00,
2013-08-14 11:51:00,79.6,54.0,29.94,SSW,207,4.0,5.0,42,0.00,,,0.00,weatherlink.com 1.10,2013-08-14 18:51:00,
2013-08-14 12:06:00,82.0,55.0,29.94,WNW,293,2.0,4.0,39,0.00,,,0.00,weatherlink.com 1.10,2013-08-14 19:06:00,
2013-08-14 12:22:00,83.4,55.0,29.93,WNW,284,2.0,4.0,38,0.00,,,0.00,weatherlink.com 1.10,2013-08-14 19:22:00,
2013-08-14 12:37:00,85.0,55.0,29.93,WNW,282,1.0,6.0,36,0.00,,,0.00,weatherlink.com 1.10,2013-08-14 19:37:00,
2013-08-14 12:52:00,86.1,55.0,29.92,SSE,166,4.0,7.0,35,0.00,,,0.00,weatherlink.com 1.10,2013-08-14 19:52:00,
2013-08-14 13:07:00,87.1,55.0,29.91,SSE,159,3.0,7.0,34,0.00,,,0.00,weatherlink.com 1.10,2013-08-14 20:07:00,
2013-08-14 13:22:00,87.6,55.0,29.91,SSW,194,4.0,8.0,33,0.00,,,0.00,weatherlink.com 1.10,2013-08-14 20:22:00,
2013-08-14 13:52:00,87.1,57.0,29.91,NNW,333,7.0,14.0,36,0.00,,,0.00,weatherlink.com 1.10,2013-08-14 20:52:00,
2013-08-14 14:07:00,86.7,57.0,29.91,SW,218,8.0,15.0,37,0.00,,,0.00,weatherlink.com 1.10,2013-08-14 21:07:00,
2013-08-14 14:22:00,86.5,57.0,29.90,SW,221,4.0,14.0,37,0.00,,,0.00,weatherlink.com 1.10,2013-08-14 21:22:00,
2013-08-14 14:37:00,86.5,57.0,29.90,West,271,3.0,13.0,37,0.00,,,0.00,weatherlink.com 1.10,2013-08-14 21:37:00,
2013-08-14 14:52:00,86.7,57.0,29.90,SSW,203,8.0,14.0,36,0.00,,,0.00,weatherlink.com 1.10,2013-08-14 21:52:00,
2013-08-14 15:07:00,87.3,56.0,29.89,SW,228,11.0,14.0,35,0.00,,,0.00,weatherlink.com 1.10,2013-08-14 22:07:00,
2013-08-14 15:22:00,87.8,57.0,29.88,SSW,211,6.0,13.0,35,0.00,,,0.00,weatherlink.com 1.10,2013-08-14 22:22:00,
2013-08-14 15:37:00,87.3,57.0,29.88,South,180,7.0,16.0,36,0.00,,,0.00,weatherlink.com 1.10,2013-08-14 22:37:00,
2013-08-14 15:52:00,87.2,57.0,29.88,West,276,7.0,18.0,36,0.00,,,0.00,weatherlink.com 1.10,2013-08-14 22:52:00,
2013-08-14 16:07:00,86.8,58.0,29.88,SSW,203,14.0,18.0,38,0.00,,,0.00,weatherlink.com 1.10,2013-08-14 23:07:00,
2013-08-14 16:22:00,84.9,59.0,29.87,South,176,14.0,18.0,42,0.00,,,0.00,weatherlink.com 1.10,2013-08-14 23:22:00,
2013-08-14 16:37:00,83.4,60.0,29.87,SSW,198,10.0,17.0,45,0.00,,,0.00,weatherlink.com 1.10,2013-08-14 23:37:00,
2013-08-14 17:07:00,80.9,60.0,29.87,SW,214,8.0,18.0,50,0.00,,,0.00,weatherlink.com 1.10,2013-08-15 00:07:00,
2013-08-14 17:22:00,80.5,61.0,29.86,SSW,207,4.0,17.0,51,0.00,,,0.00,weatherlink.com 1.10,2013-08-15 00:22:00,
2013-08-14 17:37:00,80.3,60.0,29.86,South,189,7.0,16.0,51,0.00,,,0.00,weatherlink.com 1.10,2013-08-15 00:37:00,
2013-08-14 17:52:00,80.4,61.0,29.86,SW,231,2.0,11.0,52,0.00,,,0.00,weatherlink.com 1.10,2013-08-15 00:52:00,
2013-08-14 18:07:00,80.7,61.0,29.85,SSW,207,4.0,10.0,51,0.00,,,0.00,weatherlink.com 1.10,2013-08-15 01:07:00,
2013-08-14 18:22:00,80.3,61.0,29.85,SW,221,7.0,13.0,52,0.00,,,0.00,weatherlink.com 1.10,2013-08-15 01:22:00,
2013-08-14 18:37:00,80.5,61.0,29.85,SSW,193,5.0,9.0,52,0.00,,,0.00,weatherlink.com 1.10,2013-08-15 01:37:00,
2013-08-14 18:53:00,79.6,61.0,29.85,SSE,162,5.0,10.0,54,0.00,,,0.00,weatherlink.com 1.10,2013-08-15 01:53:00,
2013-08-14 19:08:00,78.0,61.0,29.85,South,173,1.0,8.0,56,0.00,,,0.00,weatherlink.com 1.10,2013-08-15 02:08:00,
2013-08-14 19:23:00,76.1,61.0,29.85,SSW,203,5.0,10.0,60,0.00,,,0.00,weatherlink.com 1.10,2013-08-15 02:23:00,
2013-08-14 19:38:00,74.9,61.0,29.86,SSW,203,2.0,7.0,62,0.00,,,0.00,weatherlink.com 1.10,2013-08-15 02:38:00,
2013-08-14 19:53:00,74.0,61.0,29.86,SW,214,3.0,4.0,64,0.00,,,0.00,weatherlink.com 1.10,2013-08-15 02:53:00,
2013-08-14 20:08:00,72.2,61.0,29.86,SSW,210,0.0,2.0,67,0.00,,,0.00,weatherlink.com 1.10,2013-08-15 03:08:00,
2013-08-14 20:23:00,70.1,60.0,29.86,SSW,195,1.0,4.0,71,0.00,,,0.00,weatherlink.com 1.10,2013-08-15 03:23:00,
2013-08-14 20:38:00,68.9,60.0,29.86,SW,215,0.0,0.0,73,0.00,,,0.00,weatherlink.com 1.10,2013-08-15 03:38:00,
2013-08-14 20:53:00,67.8,60.0,29.87,SW,219,0.0,3.0,75,0.00,,,0.00,weatherlink.com 1.10,2013-08-15 03:53:00,
2013-08-14 21:08:00,66.6,60.0,29.87,SSW,201,0.0,0.0,78,0.00,,,0.00,weatherlink.com 1.10,2013-08-15 04:08:00,
2013-08-14 21:23:00,65.7,59.0,29.88,SSW,197,0.0,0.0,79,0.00,,,0.00,weatherlink.com 1.10,2013-08-15 04:23:00,
2013-08-14 21:38:00,65.1,59.0,29.88,SSW,197,0.0,0.0,80,0.00,,,0.00,weatherlink.com 1.10,2013-08-15 04:38:00,
2013-08-14 21:53:00,64.5,59.0,29.89,SSW,198,0.0,0.0,82,0.00,,,0.00,weatherlink.com 1.10,2013-08-15 04:53:00,
2013-08-14 22:08:00,63.8,59.0,29.89,SSW,199,0.0,0.0,83,0.00,,,0.00,weatherlink.com 1.10,2013-08-15 05:08:00,
2013-08-14 22:23:00,63.2,58.0,29.89,SSE,150,0.0,0.0,83,0.00,,,0.00,weatherlink.com 1.10,2013-08-15 05:23:00,
2013-08-14 22:38:00,62.8,58.0,29.89,SW,223,0.0,0.0,85,0.00,,,0.00,weatherlink.com 1.10,2013-08-15 05:38:00,
2013-08-14 22:53:00,62.3,58.0,29.90,SW,224,0.0,0.0,86,0.00,,,0.00,weatherlink.com 1.10,2013-08-15 05:53:00,
2013-08-14 23:08:00,62.0,58.0,29.90,South,185,0.0,0.0,86,0.00,,,0.00,weatherlink.com 1.10,2013-08-15 06:08:00,
2013-08-14 23:23:00,61.8,58.0,29.90,South,177,0.0,0.0,86,0.00,,,0.00,weatherlink.com 1.10,2013-08-15 06:23:00,
2013-08-14 23:38:00,62.0,58.0,29.90,ENE,75,0.0,0.0,86,0.00,,,0.00,weatherlink.com 1.10,2013-08-15 06:38:00,
2013-08-14 23:53:00,61.5,58.0,29.90,ENE,75,0.0,0.0,87,0.00,,,0.00,weatherlink.com 1.10,2013-08-15 06:53:00,